Погода в Визябоже

Россия / Республика Коми     61°44′28″N   51°12′47″E
темп.,
°C
ветер,
м/с
пор.,
м/с
влажн.,
%
обл.,
%
осадки,
мм/ч
давл.,
гПа
погр.,
м
19 января, вт
вт1900:00−24ю229814 0.0 101925
03:00−24ю239842 0.0 101963
06:00−23ю279876 0.0 1017148
09:00−22ю269885 0.1 1017152
12:00−19ююз379597 0.1 1016262
15:00−18ю379699 0.1 1015256
18:00−19ю2797100 0.0 1014230
21:00−18ююз3697100 0.1 1014249
20 января, ср
ср2000:00−19ююз3797100 0.1 1013233
03:00−19ююз3797100 0.2 1012233
06:00−19ююз269892 0.1 1010165
09:00−18ююз369793 0.2 1010238
12:00−16юз359599 0.3 1009257
15:00−16юз2697100 0.4 1009193
18:00−16зюз2796100 0.1 1009211
21:00−18з269898 0.2 1009154
21 января, чт
чт2100:00−20з2310099 0.0 100977
03:00−22з239991 0.1 101052
06:00−22з239995 0.0 101082
09:00−22з249998 0.1 1010113
12:00−20зсз2396100 0.1 1011261
15:00−22зсз1299100 0.1 101020
18:00−25сз1110099 0.0 101119
21:00−26св1110098 0.1 101019
22 января, пт
пт2200:00−27всв1210098 0.0 101019
03:00−28всв229998 0.0 101119
06:00−29всв229869 0.0 101237
09:00−29всв229835 0.0 101346
12:00−26всв249512 0.0 1015189
15:00−27всв239719 0.0 101764
18:00−28всв259766 0.0 1019131
21:00−27в259483 0.0 1020170
23 января, сб
сб2300:00−27в2593100 0.0 1021173
03:00−28в3695100 0.0 1022175
06:00−26в3695100 0.0 1022233
09:00−25в3894100 0.0 1021263
12:00−22в4796100 0.1 1020309
15:00−21в4997100 0.5 1020344
18:00−21вюв4996100 0.3 1020391
21:00−21вюв4995100 0.4 1020395